CREW DRAGON 6

Last updated on Mon Sep 04 2023 00:02:06 GMT+0000 (Coordinated Universal Time)

1 55740U 23027A 23246.40867597 .00011066 00000+0 20030-3 0 9999 2 55740 51.6418 301.0371 0005581 26.1813 68.2333 15.50177100 28724
UTC large
Height (km)
Speed (km/s)
/
Latitude / Longitude
Inclination (degrees)
Orbital Period (minutes)
Azimuth
Elevation
Range (km)
Doppler Factor

Next 0 passes for location: London (51.5072 / 0.1276)

Sorry there are no passes over London.